DAL201 FAOR-KATL

Flight info

Callsign DAL201
Flight time N/A
Altitude 34000
Route VASUR3A VASUR UQ24 ETOSA UL435 XOXAM UN184 EVUVI UT375 ETLOV DCT 15S010E 12S005E 09S000W/N0500F360 06S005W 03S010W 01S015W 02N020W/N0492F380 DCT BUVUK UL435 IRELA DCT 15N040W/M085F400 21N050W 26N060W DCT MEGGG L375 JAINS/N0485F400 DCT HOTHH JJEDI4
Aircraft A359/H-SDE2E3GHIJ3J4J5LM1ORWXY/LB1D1

Departure

Time N/A
Airport O.R. Tambo International Airport (FAOR)

Arrival

Time 2026-05-06 10:05
Airport Hartsfield Jackson Atlanta International Airport (KATL)
Time Latitude Longitude Altitude Speed Heading
2026-05-06 06:00 22.54680 -52.88455 40100 ft 475 kts 299°
2026-05-06 06:00 22.56301 -52.91562 40100 ft 475 kts 299°
2026-05-06 06:01 22.59544 -52.97787 40100 ft 475 kts 299°
2026-05-06 06:01 22.62783 -53.04009 40100 ft 475 kts 299°
2026-05-06 06:02 22.66021 -53.10239 40100 ft 475 kts 299°
2026-05-06 06:02 22.69237 -53.16434 40100 ft 475 kts 299°
2026-05-06 06:03 22.72468 -53.22665 40100 ft 475 kts 299°
2026-05-06 06:03 22.75693 -53.28890 40101 ft 474 kts 299°
2026-05-06 06:04 22.78922 -53.35132 40101 ft 474 kts 299°
2026-05-06 06:04 22.82144 -53.41369 40100 ft 474 kts 299°
2026-05-06 06:05 22.85365 -53.47612 40100 ft 474 kts 299°
2026-05-06 06:05 22.88580 -53.53850 40100 ft 474 kts 299°
2026-05-06 06:06 22.91799 -53.60104 40100 ft 474 kts 299°
2026-05-06 06:06 22.95012 -53.66353 40100 ft 474 kts 298°
2026-05-06 06:07 22.98220 -53.72601 40101 ft 474 kts 298°
2026-05-06 06:07 23.01426 -53.78853 40101 ft 474 kts 298°
2026-05-06 06:08 23.04629 -53.85105 40100 ft 474 kts 298°
2026-05-06 06:08 23.07829 -53.91361 40100 ft 474 kts 298°
2026-05-06 06:09 23.11027 -53.97620 40100 ft 474 kts 298°
2026-05-06 06:09 23.14225 -54.03886 40100 ft 474 kts 298°
2026-05-06 06:10 23.17398 -54.10113 40101 ft 474 kts 298°
2026-05-06 06:10 23.20605 -54.16414 40100 ft 474 kts 298°
2026-05-06 06:11 23.23796 -54.22690 40100 ft 474 kts 298°
2026-05-06 06:11 23.26976 -54.28954 40101 ft 473 kts 298°
2026-05-06 06:12 23.30155 -54.35223 40101 ft 473 kts 298°
2026-05-06 06:12 23.33336 -54.41503 40100 ft 474 kts 298°
2026-05-06 06:13 23.36514 -54.47785 40100 ft 474 kts 298°
2026-05-06 06:13 23.39686 -54.54066 40100 ft 474 kts 298°
2026-05-06 06:14 23.42851 -54.60339 40100 ft 474 kts 298°
2026-05-06 06:14 23.46003 -54.66593 40100 ft 474 kts 297°
2026-05-06 06:15 23.48657 -54.71866 40101 ft 474 kts 297°
2026-05-06 06:15 23.52336 -54.79185 40100 ft 474 kts 297°
2026-05-06 06:16 23.55505 -54.85499 40101 ft 474 kts 297°
2026-05-06 06:16 23.58153 -54.90780 40101 ft 474 kts 297°
2026-05-06 06:17 23.61311 -54.97085 40100 ft 474 kts 297°
2026-05-06 06:17 23.64469 -55.03401 40100 ft 474 kts 297°
2026-05-06 06:18 23.67623 -55.09716 40100 ft 474 kts 297°
2026-05-06 06:18 23.70778 -55.16040 40101 ft 474 kts 297°
2026-05-06 06:19 23.73929 -55.22365 40100 ft 474 kts 297°
2026-05-06 06:19 23.77076 -55.28690 40100 ft 474 kts 297°
2026-05-06 06:20 23.80221 -55.35019 40101 ft 474 kts 297°
2026-05-06 06:20 23.83362 -55.41348 40100 ft 474 kts 297°
2026-05-06 06:21 23.86500 -55.47681 40100 ft 474 kts 297°
2026-05-06 06:21 23.89642 -55.54028 40100 ft 474 kts 297°
2026-05-06 06:22 23.92777 -55.60371 40100 ft 474 kts 297°
2026-05-06 06:22 23.95908 -55.66712 40100 ft 474 kts 297°
2026-05-06 06:23 23.99042 -55.73070 40100 ft 474 kts 297°
2026-05-06 06:23 24.02169 -55.79421 40100 ft 474 kts 296°
2026-05-06 06:24 24.05268 -55.85724 40101 ft 474 kts 296°
2026-05-06 06:24 24.08391 -55.92082 40100 ft 474 kts 296°
2026-05-06 06:25 24.11514 -55.98452 40100 ft 474 kts 296°
2026-05-06 06:26 24.16187 -56.07996 40100 ft 474 kts 296°
2026-05-06 06:26 24.19299 -56.14364 40100 ft 474 kts 296°
2026-05-06 06:27 24.22409 -56.20735 40100 ft 474 kts 296°
2026-05-06 06:27 24.25518 -56.27113 40100 ft 474 kts 296°
2026-05-06 06:28 24.28622 -56.33490 40101 ft 474 kts 296°
2026-05-06 06:28 24.31726 -56.39874 40100 ft 474 kts 296°
2026-05-06 06:29 24.34822 -56.46252 40100 ft 474 kts 296°
2026-05-06 06:29 24.37919 -56.52639 40100 ft 474 kts 296°
2026-05-06 06:30 24.41012 -56.59026 40100 ft 474 kts 296°
2026-05-06 06:30 24.44101 -56.65416 40101 ft 474 kts 296°
2026-05-06 06:31 24.47188 -56.71809 40091 ft 474 kts 296°
2026-05-06 06:31 24.50273 -56.78205 40091 ft 474 kts 296°
2026-05-06 06:32 24.53358 -56.84613 40091 ft 474 kts 296°
2026-05-06 06:32 24.56437 -56.91015 40092 ft 474 kts 296°
2026-05-06 06:33 24.59515 -56.97425 40090 ft 474 kts 295°
2026-05-06 06:33 24.62591 -57.03839 40090 ft 474 kts 295°
2026-05-06 06:34 24.65661 -57.10248 40091 ft 474 kts 295°
2026-05-06 06:34 24.68730 -57.16667 40091 ft 474 kts 295°
2026-05-06 06:35 24.71794 -57.23081 40091 ft 474 kts 295°
2026-05-06 06:35 24.74857 -57.29504 40091 ft 474 kts 295°
2026-05-06 06:36 24.77917 -57.35929 40091 ft 474 kts 295°
2026-05-06 06:36 24.80973 -57.42354 40091 ft 474 kts 295°
2026-05-06 06:37 24.84025 -57.48781 40091 ft 474 kts 295°
2026-05-06 06:37 24.87073 -57.55206 40091 ft 474 kts 295°
2026-05-06 06:38 24.90122 -57.61644 40092 ft 474 kts 295°
2026-05-06 06:38 24.93163 -57.68074 40091 ft 474 kts 295°
2026-05-06 06:39 24.96207 -57.74519 40091 ft 474 kts 295°
2026-05-06 06:39 24.99242 -57.80953 40091 ft 473 kts 295°
2026-05-06 06:40 25.02280 -57.87404 40091 ft 474 kts 295°
2026-05-06 06:40 25.05312 -57.93851 40091 ft 474 kts 295°
2026-05-06 06:41 25.08342 -58.00303 40091 ft 474 kts 295°
2026-05-06 06:41 25.11369 -58.06756 40091 ft 474 kts 294°
2026-05-06 06:42 25.14393 -58.13215 40091 ft 474 kts 294°
2026-05-06 06:42 25.17412 -58.19669 40091 ft 473 kts 294°
2026-05-06 06:43 25.20431 -58.26135 40091 ft 473 kts 294°
2026-05-06 06:43 25.23446 -58.32600 40091 ft 473 kts 294°
2026-05-06 06:44 25.26458 -58.39068 40091 ft 473 kts 294°
2026-05-06 06:44 25.29465 -58.45536 40091 ft 474 kts 294°
2026-05-06 06:45 25.32474 -58.52016 40091 ft 474 kts 294°
2026-05-06 06:45 25.35476 -58.58491 40091 ft 474 kts 294°
2026-05-06 06:46 25.38478 -58.64973 40091 ft 473 kts 294°
2026-05-06 06:46 25.41471 -58.71448 40091 ft 473 kts 294°
2026-05-06 06:47 25.44470 -58.77945 40091 ft 473 kts 294°
2026-05-06 06:47 25.47455 -58.84420 40091 ft 473 kts 294°
2026-05-06 06:48 25.50448 -58.90922 40091 ft 473 kts 294°
2026-05-06 06:48 25.53432 -58.97415 40091 ft 473 kts 294°
2026-05-06 06:49 25.56415 -59.03913 40091 ft 473 kts 294°
2026-05-06 06:49 25.59397 -59.10420 40099 ft 473 kts 294°
2026-05-06 06:50 25.62374 -59.16926 40101 ft 473 kts 294°
2026-05-06 06:50 25.65350 -59.23437 40100 ft 473 kts 294°
2026-05-06 06:51 25.68316 -59.29938 40100 ft 473 kts 294°
2026-05-06 06:51 25.71284 -59.36452 40100 ft 473 kts 293°
2026-05-06 06:52 25.74246 -59.42962 40101 ft 473 kts 293°
2026-05-06 06:52 25.77205 -59.49476 40100 ft 473 kts 293°
2026-05-06 06:53 25.80163 -59.55998 40100 ft 473 kts 293°
2026-05-06 06:53 25.83117 -59.62520 40101 ft 473 kts 293°
2026-05-06 06:54 25.86070 -59.69049 40100 ft 473 kts 293°
2026-05-06 06:54 25.89016 -59.75572 40100 ft 473 kts 293°
2026-05-06 06:55 25.91962 -59.82104 40100 ft 473 kts 293°
2026-05-06 06:55 25.94901 -59.88632 40100 ft 473 kts 293°
2026-05-06 06:56 25.97837 -59.95164 40101 ft 473 kts 293°
2026-05-06 06:56 26.00590 -60.01777 40101 ft 470 kts 289°
2026-05-06 06:57 26.02588 -60.07387 40109 ft 470 kts 288°
2026-05-06 06:57 26.04936 -60.14176 40109 ft 470 kts 288°
2026-05-06 06:58 26.07271 -60.20968 40109 ft 470 kts 288°
2026-05-06 06:58 26.09606 -60.27755 40109 ft 470 kts 288°
2026-05-06 06:59 26.11944 -60.34545 40109 ft 470 kts 288°
2026-05-06 06:59 26.14278 -60.41336 40109 ft 470 kts 288°
2026-05-06 07:00 26.16609 -60.48128 40110 ft 470 kts 288°
2026-05-06 07:00 26.18934 -60.54917 40110 ft 470 kts 288°
2026-05-06 07:01 26.21260 -60.61722 40109 ft 470 kts 288°
2026-05-06 07:01 26.23581 -60.68522 40109 ft 470 kts 287°
2026-05-06 07:02 26.25899 -60.75325 40109 ft 470 kts 287°
2026-05-06 07:02 26.28215 -60.82137 40109 ft 470 kts 287°
2026-05-06 07:03 26.30526 -60.88944 40110 ft 470 kts 287°
2026-05-06 07:03 26.32833 -60.95751 40110 ft 470 kts 287°
2026-05-06 07:04 26.35138 -61.02566 40109 ft 470 kts 287°
2026-05-06 07:04 26.37443 -61.09394 40111 ft 470 kts 287°
2026-05-06 07:05 26.39742 -61.16216 40109 ft 470 kts 287°
2026-05-06 07:05 26.42039 -61.23042 40109 ft 470 kts 287°
2026-05-06 07:06 26.44332 -61.29873 40109 ft 470 kts 287°
2026-05-06 07:06 26.46620 -61.36699 40118 ft 470 kts 287°
2026-05-06 07:07 26.48909 -61.43539 40119 ft 470 kts 287°
2026-05-06 07:07 26.51190 -61.50369 40119 ft 470 kts 287°
2026-05-06 07:08 26.53470 -61.57209 40117 ft 470 kts 287°
2026-05-06 07:08 26.55747 -61.64051 40109 ft 470 kts 287°
2026-05-06 07:09 26.58022 -61.70899 40109 ft 470 kts 287°
2026-05-06 07:09 26.60291 -61.77745 40111 ft 470 kts 287°
2026-05-06 07:10 26.62560 -61.84601 40118 ft 470 kts 287°
2026-05-06 07:10 26.64821 -61.91446 40120 ft 470 kts 287°
2026-05-06 07:11 26.67083 -61.98304 40119 ft 470 kts 287°
2026-05-06 07:11 26.69340 -62.05162 40119 ft 470 kts 287°
2026-05-06 07:12 26.71590 -62.12012 40119 ft 469 kts 287°
2026-05-06 07:12 26.73840 -62.18873 40120 ft 469 kts 287°
2026-05-06 07:13 26.76082 -62.25724 40119 ft 469 kts 287°
2026-05-06 07:13 26.78322 -62.32582 40119 ft 469 kts 287°
2026-05-06 07:14 26.80559 -62.39444 40122 ft 469 kts 287°
2026-05-06 07:14 26.82795 -62.46315 40131 ft 469 kts 287°
2026-05-06 07:15 26.85024 -62.53177 40134 ft 469 kts 287°
2026-05-06 07:15 26.87249 -62.60040 40130 ft 469 kts 287°
2026-05-06 07:16 26.89469 -62.66899 40128 ft 469 kts 287°
2026-05-06 07:16 26.91687 -62.73767 40128 ft 469 kts 287°
2026-05-06 07:17 26.93903 -62.80640 40128 ft 469 kts 287°
2026-05-06 07:17 26.96113 -62.87509 40128 ft 468 kts 287°
2026-05-06 07:18 26.98319 -62.94377 40126 ft 468 kts 286°
2026-05-06 07:18 27.00521 -63.01247 40126 ft 468 kts 286°
2026-05-06 07:19 27.02719 -63.08117 40132 ft 468 kts 286°
2026-05-06 07:19 27.04914 -63.14991 40126 ft 468 kts 286°
2026-05-06 07:20 27.07107 -63.21869 40126 ft 468 kts 286°
2026-05-06 07:20 27.09294 -63.28745 40126 ft 468 kts 286°
2026-05-06 07:21 27.11479 -63.35629 40129 ft 468 kts 286°
2026-05-06 07:21 27.13662 -63.42515 40130 ft 468 kts 286°
2026-05-06 07:22 27.15842 -63.49408 40131 ft 468 kts 286°
2026-05-06 07:22 27.18014 -63.56290 40128 ft 468 kts 286°
2026-05-06 07:23 27.20184 -63.63178 40132 ft 468 kts 286°
2026-05-06 07:23 27.22351 -63.70070 40126 ft 468 kts 286°
2026-05-06 07:24 27.24517 -63.76971 40126 ft 468 kts 286°
2026-05-06 07:24 27.26678 -63.83869 40126 ft 468 kts 285°
2026-05-06 07:25 27.28832 -63.90760 40126 ft 468 kts 285°
2026-05-06 07:25 27.30986 -63.97662 40126 ft 468 kts 285°
2026-05-06 07:26 27.33137 -64.04572 40129 ft 468 kts 285°
2026-05-06 07:26 27.35281 -64.11471 40131 ft 468 kts 285°
2026-05-06 07:27 27.37425 -64.18382 40131 ft 468 kts 285°
2026-05-06 07:27 27.39560 -64.25280 40126 ft 468 kts 285°
2026-05-06 07:28 27.41696 -64.32195 40126 ft 468 kts 285°
2026-05-06 07:28 27.44894 -64.42572 40131 ft 467 kts 285°
2026-05-06 07:29 27.47018 -64.49480 40112 ft 467 kts 285°
2026-05-06 07:29 27.49140 -64.56397 40113 ft 467 kts 285°
2026-05-06 07:30 27.51258 -64.63316 40119 ft 467 kts 285°
2026-05-06 07:30 27.53374 -64.70238 40121 ft 467 kts 285°
2026-05-06 07:31 27.55485 -64.77162 40110 ft 467 kts 285°
2026-05-06 07:31 27.57594 -64.84091 40109 ft 467 kts 285°
2026-05-06 07:32 27.59697 -64.91016 40109 ft 467 kts 285°
2026-05-06 07:32 27.61799 -64.97950 40110 ft 467 kts 285°
2026-05-06 07:33 27.63900 -65.04894 40109 ft 467 kts 285°
2026-05-06 07:33 27.65993 -65.11829 40109 ft 467 kts 285°
2026-05-06 07:34 27.68083 -65.18766 40111 ft 467 kts 285°
2026-05-06 07:34 27.70169 -65.25705 40109 ft 467 kts 285°
2026-05-06 07:35 27.72257 -65.32661 40109 ft 467 kts 285°
2026-05-06 07:35 27.74335 -65.39600 40112 ft 467 kts 285°
2026-05-06 07:36 27.76409 -65.46544 40109 ft 467 kts 285°
2026-05-06 07:36 27.78136 -65.52332 40111 ft 467 kts 285°
2026-05-06 07:37 27.80207 -65.59291 40109 ft 467 kts 285°
2026-05-06 07:37 27.82274 -65.66248 40109 ft 467 kts 285°
2026-05-06 07:38 27.84338 -65.73207 40109 ft 467 kts 285°
2026-05-06 07:38 27.86398 -65.80170 40109 ft 467 kts 285°
2026-05-06 07:39 27.88455 -65.87138 40109 ft 467 kts 285°
2026-05-06 07:39 27.90519 -65.94146 40109 ft 467 kts 285°
2026-05-06 07:40 27.92555 -66.01069 40110 ft 467 kts 285°
2026-05-06 07:40 27.94614 -66.08089 40109 ft 467 kts 285°
2026-05-06 07:41 27.96644 -66.15019 40109 ft 467 kts 285°
2026-05-06 07:41 27.98692 -66.22030 40109 ft 467 kts 285°
2026-05-06 07:42 28.00716 -66.28973 40110 ft 467 kts 285°
2026-05-06 07:42 28.02745 -66.35947 40109 ft 467 kts 285°
2026-05-06 07:43 28.04772 -66.42927 40110 ft 467 kts 285°
2026-05-06 07:43 28.06795 -66.49911 40109 ft 467 kts 285°
2026-05-06 07:44 28.08817 -66.56906 40109 ft 467 kts 285°
2026-05-06 07:44 28.10830 -66.63883 40109 ft 467 kts 285°
2026-05-06 07:45 28.12846 -66.70887 40109 ft 467 kts 285°
2026-05-06 07:45 28.14855 -66.77880 40109 ft 467 kts 285°
2026-05-06 07:46 28.16863 -66.84886 40110 ft 467 kts 285°
2026-05-06 07:46 28.18866 -66.91889 40109 ft 467 kts 285°
2026-05-06 07:47 28.20864 -66.98891 40111 ft 467 kts 285°
2026-05-06 07:47 28.22859 -67.05897 40109 ft 467 kts 285°
2026-05-06 07:48 28.24851 -67.12906 40104 ft 467 kts 285°
2026-05-06 07:48 28.26839 -67.19917 40109 ft 467 kts 285°
2026-05-06 07:49 28.28823 -67.26928 40110 ft 467 kts 285°
2026-05-06 07:49 28.30805 -67.33949 40109 ft 467 kts 285°
2026-05-06 07:50 28.32779 -67.40957 40109 ft 467 kts 285°
2026-05-06 07:50 28.34751 -67.47972 40110 ft 467 kts 285°
2026-05-06 07:51 28.36954 -67.54916 40110 ft 468 kts 290°
2026-05-06 07:51 28.39523 -67.61707 40110 ft 469 kts 291°
2026-05-06 07:52 28.42150 -67.68486 40109 ft 469 kts 291°
2026-05-06 07:52 28.44777 -67.75268 40109 ft 468 kts 291°
2026-05-06 07:53 28.47388 -67.82043 40109 ft 468 kts 291°
2026-05-06 07:53 28.49996 -67.88832 40109 ft 468 kts 291°
2026-05-06 07:54 28.52597 -67.95616 40109 ft 468 kts 291°
2026-05-06 07:54 28.55198 -68.02411 40109 ft 468 kts 291°
2026-05-06 07:55 28.57791 -68.09199 40109 ft 468 kts 291°
2026-05-06 07:55 28.60381 -68.15991 40110 ft 467 kts 291°
2026-05-06 07:56 28.62965 -68.22777 40109 ft 467 kts 291°
2026-05-06 07:56 28.65545 -68.29567 40109 ft 467 kts 291°
2026-05-06 07:57 28.68123 -68.36364 40109 ft 467 kts 291°
2026-05-06 07:57 28.70692 -68.43149 40109 ft 467 kts 291°
2026-05-06 07:58 28.73259 -68.49940 40109 ft 467 kts 291°
2026-05-06 07:58 28.75823 -68.56736 40109 ft 466 kts 291°
2026-05-06 07:59 28.78376 -68.63515 40110 ft 466 kts 291°
2026-05-06 07:59 28.80928 -68.70303 40109 ft 466 kts 292°
2026-05-06 08:00 28.83480 -68.77091 40101 ft 466 kts 292°
2026-05-06 08:00 28.86050 -68.83881 40100 ft 466 kts 292°
2026-05-06 08:01 28.88612 -68.90655 40101 ft 465 kts 292°
2026-05-06 08:01 28.91169 -68.97436 40101 ft 465 kts 292°
2026-05-06 08:02 28.93721 -69.04217 40100 ft 465 kts 292°
2026-05-06 08:02 28.96264 -69.10989 40100 ft 464 kts 292°
2026-05-06 08:03 28.98808 -69.17775 40101 ft 464 kts 292°
2026-05-06 08:03 29.01347 -69.24558 40100 ft 464 kts 292°
2026-05-06 08:04 29.03878 -69.31334 40100 ft 464 kts 292°
2026-05-06 08:04 29.06406 -69.38113 40101 ft 463 kts 292°
2026-05-06 08:05 29.08927 -69.44888 40101 ft 464 kts 292°
2026-05-06 08:05 29.11450 -69.51680 40100 ft 464 kts 292°
2026-05-06 08:06 29.13968 -69.58470 40100 ft 463 kts 292°
2026-05-06 08:06 29.16477 -69.65251 40101 ft 463 kts 293°
2026-05-06 08:07 29.18988 -69.72048 40101 ft 463 kts 293°
2026-05-06 08:07 29.21491 -69.78836 40100 ft 463 kts 293°
2026-05-06 08:08 29.23990 -69.85625 40100 ft 463 kts 293°
2026-05-06 08:08 29.26489 -69.92426 40100 ft 463 kts 293°
2026-05-06 08:09 29.28986 -69.99236 40100 ft 463 kts 293°
2026-05-06 08:09 29.31474 -70.06036 40101 ft 463 kts 293°
2026-05-06 08:10 29.33957 -70.12834 40101 ft 462 kts 293°
2026-05-06 08:10 29.36434 -70.19624 40101 ft 461 kts 293°
2026-05-06 08:11 29.38904 -70.26412 40100 ft 461 kts 293°
2026-05-06 08:11 29.41370 -70.33199 40100 ft 461 kts 293°
2026-05-06 08:12 29.43833 -70.39993 40101 ft 461 kts 293°
2026-05-06 08:12 29.46291 -70.46786 40100 ft 461 kts 293°
2026-05-06 08:13 29.48744 -70.53576 40101 ft 461 kts 293°
2026-05-06 08:13 29.51196 -70.60377 40100 ft 460 kts 293°
2026-05-06 08:14 29.53625 -70.67126 40091 ft 460 kts 293°
2026-05-06 08:14 29.56079 -70.73959 40092 ft 460 kts 293°
2026-05-06 08:15 29.58512 -70.80748 40091 ft 460 kts 293°
2026-05-06 08:15 29.60939 -70.87530 40091 ft 459 kts 293°
2026-05-06 08:16 29.63365 -70.94323 40091 ft 459 kts 293°
2026-05-06 08:16 29.65372 -70.99952 40091 ft 458 kts 293°
2026-05-06 08:17 29.67790 -71.06747 40092 ft 458 kts 293°
2026-05-06 08:17 29.70587 -71.14624 40091 ft 458 kts 293°
2026-05-06 08:18 29.72601 -71.20305 40092 ft 457 kts 294°
2026-05-06 08:18 29.74544 -71.25796 40092 ft 457 kts 294°
2026-05-06 08:19 29.76937 -71.32570 40091 ft 457 kts 294°
2026-05-06 08:19 29.79323 -71.39334 40091 ft 456 kts 294°
2026-05-06 08:20 29.81705 -71.46104 40091 ft 456 kts 294°
2026-05-06 08:20 29.84080 -71.52865 40091 ft 455 kts 294°
2026-05-06 08:21 29.86454 -71.59635 40091 ft 455 kts 294°
2026-05-06 08:21 29.88803 -71.66350 40092 ft 455 kts 294°
2026-05-06 08:22 29.91181 -71.73160 40091 ft 455 kts 294°
2026-05-06 08:22 29.93538 -71.79920 40092 ft 455 kts 294°
2026-05-06 08:23 29.95891 -71.86685 40091 ft 454 kts 294°
2026-05-06 08:23 29.98237 -71.93441 40091 ft 454 kts 294°
2026-05-06 08:24 30.00565 -72.00161 40091 ft 454 kts 294°
2026-05-06 08:24 30.02885 -72.06868 40091 ft 454 kts 294°
2026-05-06 08:25 30.05241 -72.13694 40092 ft 454 kts 294°
2026-05-06 08:25 30.07558 -72.20418 40091 ft 454 kts 294°
2026-05-06 08:26 30.09894 -72.27212 40085 ft 454 kts 292°
2026-05-06 08:26 30.11063 -72.30615 39502 ft 456 kts 292°
2026-05-06 08:26 30.12228 -72.34014 40105 ft 457 kts 293°
2026-05-06 08:27 30.14570 -72.40853 40081 ft 456 kts 293°
2026-05-06 08:27 30.16861 -72.47659 40083 ft 454 kts 291°
2026-05-06 08:28 30.18829 -72.54602 40082 ft 455 kts 289°
2026-05-06 08:28 30.20709 -72.61582 40082 ft 454 kts 289°
2026-05-06 08:29 30.22626 -72.68540 40082 ft 454 kts 290°
2026-05-06 08:29 30.24572 -72.75481 40082 ft 454 kts 290°
2026-05-06 08:30 30.26520 -72.82411 40082 ft 453 kts 290°
2026-05-06 08:30 30.28464 -72.89347 40081 ft 453 kts 290°
2026-05-06 08:31 30.30398 -72.96270 40081 ft 453 kts 290°
2026-05-06 08:31 30.32326 -73.03188 40082 ft 452 kts 290°
2026-05-06 08:32 30.34252 -73.10116 40082 ft 452 kts 290°
2026-05-06 08:32 30.36170 -73.17029 40082 ft 451 kts 290°
2026-05-06 08:33 30.38084 -73.23945 40082 ft 451 kts 290°
2026-05-06 08:33 30.39994 -73.30864 40082 ft 451 kts 290°
2026-05-06 08:34 30.42853 -73.41245 40082 ft 450 kts 290°
2026-05-06 08:35 30.44749 -73.48151 40082 ft 450 kts 290°
2026-05-06 08:35 30.46644 -73.55072 40082 ft 450 kts 290°
2026-05-06 08:36 30.48537 -73.61997 40081 ft 450 kts 290°
2026-05-06 08:36 30.50423 -73.68916 40082 ft 450 kts 289°
2026-05-06 08:37 30.52304 -73.75830 40083 ft 450 kts 289°
2026-05-06 08:37 30.54184 -73.82757 40083 ft 450 kts 289°
2026-05-06 08:38 30.56042 -73.89619 40081 ft 450 kts 289°
2026-05-06 08:38 30.57910 -73.96536 40082 ft 450 kts 289°
2026-05-06 08:39 30.59776 -74.03462 40083 ft 449 kts 289°
2026-05-06 08:39 30.61635 -74.10380 40077 ft 449 kts 289°
2026-05-06 08:40 30.63492 -74.17307 40052 ft 449 kts 289°
2026-05-06 08:40 30.65343 -74.24227 40061 ft 449 kts 289°
2026-05-06 08:41 30.67188 -74.31142 40061 ft 449 kts 289°
2026-05-06 08:41 30.69033 -74.38072 40054 ft 449 kts 289°
2026-05-06 08:42 30.70872 -74.44998 40050 ft 448 kts 289°
2026-05-06 08:42 30.72706 -74.51921 40052 ft 448 kts 289°
2026-05-06 08:43 30.74539 -74.58852 40051 ft 448 kts 289°
2026-05-06 08:43 30.76366 -74.65782 40060 ft 448 kts 289°
2026-05-06 08:44 30.78186 -74.72703 40055 ft 448 kts 289°
2026-05-06 08:44 30.80005 -74.79634 40046 ft 448 kts 289°
2026-05-06 08:45 30.81819 -74.86560 40056 ft 448 kts 289°
2026-05-06 08:45 30.83628 -74.93487 40052 ft 448 kts 289°
2026-05-06 08:46 30.85433 -75.00418 40071 ft 448 kts 289°
2026-05-06 08:46 30.87235 -75.07350 40067 ft 448 kts 289°
2026-05-06 08:47 30.89033 -75.14284 40068 ft 448 kts 289°
2026-05-06 08:47 30.90827 -75.21221 40068 ft 448 kts 289°
2026-05-06 08:48 30.92621 -75.28173 40062 ft 447 kts 289°
2026-05-06 08:48 30.94405 -75.35107 40065 ft 447 kts 289°
2026-05-06 08:49 30.96188 -75.42051 40072 ft 447 kts 289°
2026-05-06 08:49 30.97963 -75.48981 40057 ft 447 kts 289°
2026-05-06 08:50 30.99733 -75.55910 40071 ft 447 kts 289°
2026-05-06 08:50 31.01507 -75.62868 40058 ft 447 kts 289°
2026-05-06 08:51 31.03272 -75.69812 40077 ft 446 kts 289°
2026-05-06 08:51 31.05031 -75.76750 40076 ft 446 kts 289°
2026-05-06 08:52 31.06790 -75.83703 40077 ft 446 kts 288°
2026-05-06 08:52 31.08544 -75.90652 40077 ft 446 kts 288°
2026-05-06 08:53 31.10293 -75.97599 40077 ft 446 kts 288°
2026-05-06 08:53 31.12035 -76.04537 40060 ft 446 kts 288°
2026-05-06 08:54 31.13778 -76.11497 40076 ft 446 kts 288°
2026-05-06 08:54 31.15515 -76.18450 40061 ft 446 kts 288°
2026-05-06 08:55 31.17247 -76.25402 40061 ft 446 kts 288°
2026-05-06 08:55 31.18975 -76.32353 40077 ft 446 kts 288°
2026-05-06 08:56 31.20698 -76.39303 40077 ft 445 kts 288°
2026-05-06 08:56 31.22415 -76.46245 40076 ft 445 kts 288°
2026-05-06 08:57 31.24127 -76.53186 40078 ft 445 kts 288°
2026-05-06 08:57 31.25554 -76.58982 40068 ft 445 kts 288°
2026-05-06 08:58 31.27262 -76.65937 40076 ft 445 kts 288°
2026-05-06 08:58 31.28965 -76.72894 40077 ft 445 kts 288°
2026-05-06 08:59 31.30667 -76.79860 40078 ft 445 kts 288°
2026-05-06 08:59 31.32364 -76.86825 40068 ft 445 kts 288°
2026-05-06 09:00 31.34054 -76.93780 40056 ft 445 kts 288°
2026-05-06 09:00 31.35900 -77.00678 40068 ft 443 kts 294°
2026-05-06 09:01 31.37833 -77.05992 40071 ft 443 kts 295°
2026-05-06 09:01 31.40295 -77.12600 40072 ft 443 kts 295°
2026-05-06 09:02 31.42764 -77.19212 40072 ft 443 kts 295°
2026-05-06 09:02 31.45230 -77.25821 40070 ft 443 kts 295°
2026-05-06 09:03 31.47690 -77.32423 40054 ft 443 kts 295°
2026-05-06 09:03 31.50151 -77.39041 40068 ft 442 kts 295°
2026-05-06 09:04 31.52604 -77.45649 40067 ft 442 kts 295°
2026-05-06 09:04 31.55054 -77.52263 40068 ft 442 kts 295°
2026-05-06 09:05 31.57500 -77.58878 40063 ft 442 kts 295°
2026-05-06 09:05 31.59943 -77.65497 40057 ft 442 kts 295°
2026-05-06 09:06 31.62384 -77.72122 40070 ft 442 kts 295°
2026-05-06 09:06 31.64816 -77.78738 40076 ft 442 kts 295°
2026-05-06 09:07 31.67247 -77.85362 40077 ft 442 kts 295°
2026-05-06 09:07 31.69673 -77.91986 40077 ft 442 kts 295°
2026-05-06 09:08 31.72096 -77.98615 40057 ft 442 kts 294°
2026-05-06 09:08 31.74516 -78.05247 40077 ft 442 kts 294°
2026-05-06 09:09 31.76929 -78.11874 40077 ft 442 kts 294°
2026-05-06 09:09 31.79343 -78.18515 40057 ft 442 kts 294°
2026-05-06 09:10 31.81750 -78.25154 40075 ft 441 kts 294°
2026-05-06 09:10 31.83725 -78.30608 40075 ft 441 kts 294°
2026-05-06 09:11 31.86124 -78.37246 40075 ft 441 kts 294°
2026-05-06 09:11 31.88521 -78.43889 40076 ft 441 kts 294°
2026-05-06 09:12 31.90913 -78.50535 40056 ft 441 kts 294°
2026-05-06 09:12 31.93300 -78.57178 40057 ft 441 kts 294°
2026-05-06 09:13 31.95685 -78.63829 40059 ft 441 kts 294°
2026-05-06 09:13 31.98064 -78.70476 40058 ft 440 kts 294°
2026-05-06 09:14 32.00421 -78.77076 40060 ft 440 kts 294°
2026-05-06 09:14 32.02802 -78.83754 40076 ft 440 kts 294°
2026-05-06 09:15 32.05167 -78.90402 40069 ft 439 kts 294°
2026-05-06 09:15 32.07503 -78.96983 40054 ft 436 kts 294°
2026-05-06 09:16 32.09838 -79.03570 40069 ft 435 kts 294°
2026-05-06 09:16 32.12172 -79.10171 40073 ft 435 kts 294°
2026-05-06 09:17 32.14495 -79.16750 40058 ft 435 kts 294°
2026-05-06 09:17 32.16817 -79.23344 40057 ft 435 kts 294°
2026-05-06 09:18 32.19132 -79.29927 40061 ft 435 kts 294°
2026-05-06 09:18 32.21445 -79.36520 40076 ft 434 kts 293°
2026-05-06 09:19 32.23752 -79.43108 40077 ft 434 kts 293°
2026-05-06 09:19 32.26056 -79.49698 40076 ft 434 kts 293°
2026-05-06 09:20 32.28356 -79.56294 40076 ft 434 kts 293°
2026-05-06 09:20 32.30651 -79.62886 40078 ft 434 kts 293°
2026-05-06 09:21 32.32942 -79.69482 40076 ft 434 kts 293°
2026-05-06 09:21 32.35233 -79.76088 40062 ft 434 kts 293°
2026-05-06 09:22 32.37514 -79.82681 40060 ft 433 kts 293°
2026-05-06 09:22 32.39793 -79.89281 40062 ft 433 kts 293°
2026-05-06 09:23 32.42070 -79.95890 40075 ft 433 kts 293°
2026-05-06 09:23 32.44344 -80.02501 40076 ft 433 kts 293°
2026-05-06 09:24 32.46610 -80.09104 40078 ft 433 kts 293°
2026-05-06 09:24 32.48877 -80.15722 40076 ft 433 kts 293°
2026-05-06 09:25 32.51139 -80.22338 40075 ft 433 kts 292°
2026-05-06 09:25 32.53396 -80.28954 40076 ft 433 kts 292°
2026-05-06 09:26 32.55651 -80.35578 40061 ft 433 kts 292°
2026-05-06 09:26 32.57900 -80.42200 40057 ft 433 kts 292°
2026-05-06 09:27 32.60150 -80.48835 40074 ft 433 kts 292°
2026-05-06 09:27 32.62393 -80.55463 40077 ft 433 kts 292°
2026-05-06 09:28 32.64634 -80.62099 40077 ft 433 kts 292°
2026-05-06 09:28 32.66870 -80.68736 40057 ft 433 kts 292°
2026-05-06 09:29 32.69101 -80.75370 40076 ft 433 kts 292°
2026-05-06 09:29 32.71331 -80.82015 40069 ft 433 kts 292°
2026-05-06 09:30 32.73555 -80.88657 40064 ft 433 kts 292°
2026-05-06 09:30 32.75774 -80.95298 40054 ft 433 kts 292°
2026-05-06 09:31 32.77987 -81.01932 40065 ft 433 kts 292°
2026-05-06 09:31 32.80204 -81.08593 40062 ft 433 kts 292°
2026-05-06 09:32 32.82414 -81.15248 40073 ft 433 kts 292°
2026-05-06 09:32 32.84621 -81.21908 40062 ft 432 kts 292°
2026-05-06 09:33 32.86822 -81.28562 40049 ft 432 kts 292°
2026-05-06 09:33 32.89018 -81.35216 40052 ft 432 kts 291°
2026-05-06 09:34 32.91210 -81.41874 40056 ft 432 kts 291°
2026-05-06 09:34 32.93401 -81.48539 40060 ft 432 kts 291°
2026-05-06 09:35 32.95589 -81.55212 40047 ft 432 kts 291°
2026-05-06 09:35 32.97753 -81.61824 40056 ft 432 kts 291°
2026-05-06 09:36 32.99947 -81.68541 40061 ft 432 kts 291°
2026-05-06 09:36 33.02103 -81.75158 40056 ft 432 kts 291°
2026-05-06 09:37 33.04277 -81.81843 40052 ft 432 kts 291°
2026-05-06 09:37 33.05884 -81.88711 40027 ft 433 kts 278°
2026-05-06 09:37 33.06203 -81.92285 39787 ft 433 kts 277°
2026-05-06 09:38 33.06465 -81.95865 39537 ft 434 kts 277°
2026-05-06 09:38 33.06724 -81.99448 39277 ft 434 kts 277°
2026-05-06 09:38 33.06986 -82.03030 39036 ft 435 kts 277°
2026-05-06 09:38 33.07250 -82.06619 38786 ft 435 kts 277°
2026-05-06 09:39 33.07515 -82.10210 38535 ft 435 kts 277°
2026-05-06 09:39 33.07694 -82.12642 38365 ft 435 kts 277°
2026-05-06 09:39 33.08044 -82.17400 38034 ft 436 kts 277°
2026-05-06 09:39 33.08222 -82.19832 37865 ft 436 kts 277°
2026-05-06 09:40 33.08482 -82.23385 37619 ft 436 kts 277°
2026-05-06 09:40 33.08748 -82.27043 37372 ft 437 kts 276°
2026-05-06 09:40 33.09267 -82.34215 36868 ft 438 kts 276°
2026-05-06 09:41 33.09528 -82.37840 36575 ft 438 kts 276°
2026-05-06 09:41 33.09785 -82.41443 35952 ft 436 kts 276°
2026-05-06 09:41 33.10043 -82.45049 35208 ft 437 kts 276°
2026-05-06 09:41 33.10301 -82.48676 34371 ft 440 kts 276°
2026-05-06 09:42 33.10559 -82.52323 33500 ft 443 kts 276°
2026-05-06 09:42 33.10818 -82.56001 32594 ft 447 kts 276°
2026-05-06 09:42 33.11077 -82.59699 31656 ft 450 kts 276°
2026-05-06 09:42 33.11339 -82.63434 30694 ft 453 kts 276°
2026-05-06 09:43 33.11600 -82.67196 29690 ft 457 kts 276°
2026-05-06 09:43 33.11862 -82.70992 28755 ft 459 kts 276°
2026-05-06 09:43 33.12122 -82.74770 28047 ft 455 kts 276°
2026-05-06 09:43 33.12378 -82.78518 27328 ft 451 kts 276°
2026-05-06 09:44 33.12635 -82.82238 26620 ft 449 kts 276°
2026-05-06 09:44 33.12891 -82.85942 25899 ft 446 kts 275°
2026-05-06 09:44 33.13141 -82.89609 25185 ft 443 kts 275°
2026-05-06 09:44 33.13390 -82.93264 24461 ft 441 kts 275°
2026-05-06 09:45 33.13638 -82.96906 23740 ft 438 kts 275°
2026-05-06 09:45 33.13882 -83.00514 23016 ft 435 kts 275°
2026-05-06 09:45 33.14124 -83.04110 22294 ft 433 kts 275°
2026-05-06 09:45 33.14363 -83.07671 21574 ft 429 kts 275°
2026-05-06 09:46 33.14598 -83.11203 20848 ft 425 kts 275°
2026-05-06 09:46 33.14830 -83.14703 20123 ft 421 kts 275°
2026-05-06 09:46 33.15060 -83.18175 19388 ft 418 kts 275°
2026-05-06 09:46 33.15288 -83.21613 18663 ft 414 kts 275°
2026-05-06 09:47 33.15512 -83.25016 17978 ft 409 kts 275°
2026-05-06 09:47 33.15728 -83.28337 17811 ft 392 kts 275°
2026-05-06 09:47 33.15937 -83.31547 17700 ft 374 kts 275°
2026-05-06 09:47 33.16132 -83.34571 17584 ft 358 kts 275°
2026-05-06 09:48 33.16315 -83.37395 17479 ft 343 kts 275°
2026-05-06 09:48 33.16454 -83.39545 17324 ft 335 kts 275°
2026-05-06 09:48 33.16634 -83.42362 16745 ft 337 kts 275°
2026-05-06 09:48 33.16816 -83.45154 16216 ft 337 kts 275°
2026-05-06 09:49 33.16985 -83.47901 15722 ft 335 kts 275°
2026-05-06 09:49 33.17149 -83.50701 15220 ft 334 kts 275°
2026-05-06 09:49 33.17315 -83.53454 14725 ft 331 kts 275°
2026-05-06 09:49 33.17476 -83.56147 14233 ft 329 kts 275°
2026-05-06 09:50 33.17637 -83.58867 13743 ft 327 kts 275°
2026-05-06 09:50 33.17798 -83.61571 13281 ft 325 kts 274°
2026-05-06 09:50 33.17953 -83.64197 13140 ft 310 kts 275°
2026-05-06 09:50 33.18103 -83.66707 13028 ft 296 kts 274°
2026-05-06 09:51 33.18244 -83.69110 12867 ft 286 kts 274°
2026-05-06 09:51 33.18382 -83.71468 12491 ft 285 kts 274°
2026-05-06 09:51 33.18519 -83.73832 12100 ft 285 kts 274°
2026-05-06 09:51 33.18662 -83.76183 11714 ft 284 kts 274°
2026-05-06 09:52 33.18809 -83.78526 11347 ft 282 kts 274°
2026-05-06 09:52 33.19025 -83.80876 10969 ft 281 kts 281°
2026-05-06 09:52 33.19763 -83.82989 10609 ft 282 kts 303°
2026-05-06 09:52 33.21049 -83.84753 10229 ft 282 kts 313°
2026-05-06 09:53 33.22446 -83.86394 9848 ft 282 kts 313°
2026-05-06 09:53 33.23857 -83.88039 9477 ft 285 kts 313°
2026-05-06 09:53 33.25332 -83.89628 9334 ft 289 kts 321°
2026-05-06 09:53 33.27061 -83.90794 9267 ft 280 kts 334°
2026-05-06 09:54 33.28835 -83.91630 9150 ft 269 kts 337°
2026-05-06 09:54 33.30588 -83.92394 9063 ft 268 kts 336°
2026-05-06 09:54 33.32279 -83.93324 8984 ft 266 kts 330°
2026-05-06 09:54 33.33906 -83.94301 8774 ft 259 kts 330°
2026-05-06 09:55 33.35490 -83.95270 8525 ft 254 kts 329°
2026-05-06 09:55 33.37059 -83.96242 8286 ft 254 kts 329°
2026-05-06 09:55 33.38623 -83.97218 8031 ft 252 kts 329°
2026-05-06 09:55 33.40176 -83.98199 7779 ft 252 kts 329°
2026-05-06 09:56 33.41716 -83.99168 7535 ft 250 kts 329°
2026-05-06 09:56 33.43256 -84.00136 7297 ft 251 kts 329°
2026-05-06 09:56 33.44807 -84.01113 7036 ft 250 kts 329°
2026-05-06 09:56 33.46347 -84.02084 6779 ft 250 kts 328°
2026-05-06 09:57 33.47874 -84.03051 6539 ft 248 kts 329°
2026-05-06 09:57 33.49403 -84.04018 6290 ft 247 kts 329°
2026-05-06 09:57 33.50922 -84.04981 6041 ft 247 kts 329°
2026-05-06 09:57 33.52438 -84.05941 5897 ft 246 kts 329°
2026-05-06 09:58 33.53955 -84.06899 5757 ft 246 kts 329°
2026-05-06 09:58 33.55469 -84.07855 5566 ft 246 kts 329°
2026-05-06 09:58 33.56979 -84.08807 5303 ft 245 kts 329°
2026-05-06 09:58 33.58487 -84.09761 5050 ft 243 kts 329°
2026-05-06 09:59 33.59978 -84.10709 5011 ft 244 kts 329°
2026-05-06 09:59 33.61469 -84.11685 5007 ft 243 kts 325°
2026-05-06 09:59 33.62668 -84.13057 5018 ft 236 kts 298°
2026-05-06 09:59 33.63284 -84.14780 5010 ft 215 kts 280°
2026-05-06 10:00 33.63446 -84.16474 4984 ft 198 kts 268°
2026-05-06 10:00 33.63448 -84.18082 4837 ft 188 kts 268°
2026-05-06 10:00 33.63460 -84.19632 4565 ft 185 kts 268°
2026-05-06 10:00 33.63462 -84.21172 4244 ft 184 kts 267°
2026-05-06 10:01 33.63463 -84.22690 3959 ft 180 kts 267°
2026-05-06 10:01 33.63465 -84.24180 3711 ft 176 kts 267°
2026-05-06 10:01 33.63466 -84.25631 3478 ft 173 kts 267°
2026-05-06 10:01 33.63467 -84.27072 3249 ft 170 kts 267°
2026-05-06 10:02 33.63468 -84.28443 3025 ft 157 kts 267°
2026-05-06 10:02 33.63469 -84.29706 2824 ft 146 kts 266°
2026-05-06 10:02 33.63469 -84.30866 2633 ft 137 kts 267°
2026-05-06 10:02 33.63470 -84.31985 2462 ft 133 kts 267°
2026-05-06 10:03 33.63469 -84.33103 2282 ft 135 kts 267°
2026-05-06 10:03 33.63468 -84.34231 2102 ft 136 kts 268°
2026-05-06 10:03 33.63469 -84.35364 1921 ft 137 kts 268°
2026-05-06 10:03 33.63475 -84.36511 1735 ft 139 kts 269°
2026-05-06 10:04 33.63474 -84.37683 1560 ft 138 kts 268°
2026-05-06 10:04 33.63471 -84.38800 1366 ft 135 kts 269°
2026-05-06 10:04 33.63470 -84.39940 1187 ft 135 kts 270°
2026-05-06 10:04 33.63470 -84.41057 1036 ft 137 kts 269°
2026-05-06 10:05 33.63471 -84.42129 1013 ft 109 kts 269°
2026-05-06 10:05 33.63471 -84.42741 1012 ft 37 kts 270°
2026-05-06 10:05 33.63471 -84.42919 1013 ft 16 kts 270°
2026-05-06 10:05 33.63507 -84.43060 1011 ft 19 kts 301°
2026-05-06 10:06 33.63566 -84.43120 1012 ft 7 kts 21°
2026-05-06 10:06 33.63579 -84.43068 1012 ft 8 kts 85°
2026-05-06 10:06 33.63581 -84.42988 1012 ft 11 kts 89°
2026-05-06 10:06 33.63582 -84.42883 1012 ft 14 kts 89°
2026-05-06 10:07 33.63581 -84.42757 1013 ft 16 kts 91°
2026-05-06 10:07 33.63581 -84.42614 1013 ft 18 kts 90°
2026-05-06 10:07 33.63581 -84.42471 1013 ft 10 kts 90°
2026-05-06 10:07 33.63606 -84.42422 1013 ft 7 kts 20°
2026-05-06 10:08 33.63668 -84.42418 1013 ft 11 kts
2026-05-06 10:08 33.63753 -84.42416 1013 ft 14 kts
2026-05-06 10:08 33.63826 -84.42430 1013 ft 7 kts 313°
2026-05-06 10:08 33.63833 -84.42488 1013 ft 6 kts 270°
2026-05-06 10:09 33.63833 -84.42501 1013 ft 0 kts 270°
2026-05-06 10:09 33.63833 -84.42507 1013 ft 2 kts 270°
2026-05-06 10:09 33.63833 -84.42510 1013 ft 0 kts 270°
2026-05-06 10:09 33.63833 -84.42513 1013 ft 0 kts 270°